TimeEDT,TemperatureF,Dew PointF,Humidity,Sea Level PressureIn,VisibilityMPH,Wind Direction,Wind SpeedMPH,Gust SpeedMPH,PrecipitationIn,Events,Conditions,WindDirDegrees,DateUTC
12:14 AM,73.4,66.7,80,29.97,10.0,South,13.8,-,N/A,,Scattered Clouds,180,2013-05-31 04:14:00
12:34 AM,74.1,66.7,78,29.97,10.0,South,10.4,-,N/A,,Mostly Cloudy,180,2013-05-31 04:34:00
12:54 AM,73.9,66.7,78,29.96,10.0,South,12.7,-,N/A,,Scattered Clouds,180,2013-05-31 04:54:00
1:14 AM,74.5,66.7,77,29.96,10.0,South,16.1,20.7,N/A,,Scattered Clouds,190,2013-05-31 05:14:00
1:34 AM,74.1,67.1,79,29.95,10.0,South,10.4,-,N/A,,Mostly Cloudy,180,2013-05-31 05:34:00
1:55 AM,73.4,67.1,81,29.95,10.0,South,12.7,18.4,N/A,,Mostly Cloudy,190,2013-05-31 05:55:00
2:14 AM,73.4,67.1,81,29.95,10.0,South,10.4,-,N/A,,Scattered Clouds,190,2013-05-31 06:14:00
2:34 AM,73.0,67.1,82,29.95,10.0,South,10.4,-,N/A,,Scattered Clouds,180,2013-05-31 06:34:00
2:54 AM,73.4,67.1,81,29.95,10.0,South,10.4,-,N/A,,Scattered Clouds,190,2013-05-31 06:54:00
3:14 AM,73.0,67.1,82,29.94,10.0,SSW,9.2,-,N/A,,Mostly Cloudy,210,2013-05-31 07:14:00
3:34 AM,72.1,65.3,79,29.97,10.0,West,17.3,27.6,N/A,,Overcast,260,2013-05-31 07:34:00
3:54 AM,68.0,63.9,87,29.95,10.0,SSW,5.8,-,N/A,Rain,Light Rain,210,2013-05-31 07:54:00
4:14 AM,67.1,64.0,90,29.94,10.0,South,3.5,-,N/A,Rain,Rain,190,2013-05-31 08:14:00
4:35 AM,66.4,64.2,93,29.94,10.0,South,5.8,-,N/A,,Mostly Cloudy,180,2013-05-31 08:35:00
4:54 AM,67.1,64.6,92,29.94,10.0,South,8.1,-,N/A,,Mostly Cloudy,170,2013-05-31 08:54:00
5:14 AM,67.1,64.4,91,29.93,10.0,South,8.1,-,N/A,,Mostly Cloudy,170,2013-05-31 09:14:00
5:35 AM,66.6,63.9,91,29.92,10.0,SSE,8.1,-,N/A,,Scattered Clouds,160,2013-05-31 09:35:00
5:54 AM,66.6,63.5,90,29.92,10.0,ESE,8.1,-,N/A,,Mostly Cloudy,120,2013-05-31 09:54:00
6:14 AM,66.2,63.1,90,29.91,10.0,ESE,6.9,-,N/A,,Mostly Cloudy,110,2013-05-31 10:14:00
6:34 AM,66.7,63.5,89,29.91,10.0,East,8.1,-,N/A,,Scattered Clouds,90,2013-05-31 10:34:00
6:54 AM,68.5,64.4,87,29.91,10.0,SSE,10.4,-,N/A,,Scattered Clouds,160,2013-05-31 10:54:00
7:15 AM,68.9,65.3,88,29.92,10.0,South,13.8,20.7,N/A,Rain,Light Rain,180,2013-05-31 11:15:00
7:34 AM,68.9,64.8,87,29.92,10.0,South,15.0,24.2,N/A,,Overcast,190,2013-05-31 11:34:00
7:54 AM,68.4,64.4,87,29.95,10.0,SSW,18.4,25.3,N/A,Rain,Light Rain,210,2013-05-31 11:54:00
8:15 AM,67.3,64.6,91,29.95,4.0,SSW,18.4,25.3,N/A,Rain,Heavy Rain,200,2013-05-31 12:15:00
8:34 AM,66.4,64.4,93,29.94,10.0,SSW,11.5,-,N/A,Rain,Light Rain,200,2013-05-31 12:34:00
8:54 AM,66.7,64.6,93,29.94,10.0,SSW,12.7,-,N/A,,Light Drizzle,200,2013-05-31 12:54:00
9:14 AM,67.1,64.6,92,29.92,10.0,South,9.2,-,N/A,Rain,Light Rain,180,2013-05-31 13:14:00
9:34 AM,67.6,64.8,90,29.93,10.0,South,8.1,-,N/A,,Clear,190,2013-05-31 13:34:00
9:55 AM,67.5,64.8,91,29.93,10.0,South,8.1,-,N/A,,Clear,190,2013-05-31 13:55:00
10:14 AM,68.2,65.3,90,29.93,10.0,SSW,10.4,-,N/A,,Clear,200,2013-05-31 14:14:00
10:34 AM,69.1,65.8,89,29.94,10.0,South,12.7,17.3,N/A,,Clear,190,2013-05-31 14:34:00
10:55 AM,70.7,66.6,87,29.94,10.0,South,13.8,19.6,N/A,,Scattered Clouds,190,2013-05-31 14:55:00
11:14 AM,70.5,65.5,84,29.94,10.0,SSW,16.1,23.0,N/A,,Scattered Clouds,200,2013-05-31 15:14:00
11:34 AM,70.5,65.7,85,29.94,10.0,SSW,12.7,21.9,N/A,,Scattered Clouds,210,2013-05-31 15:34:00
11:51 AM,71.1,66.0,84,29.95,10.0,SSW,13.8,23.0,N/A,,Mostly Cloudy,210,2013-05-31 15:51:00
12:15 PM,73.0,67.3,82,29.95,10.0,SW,12.7,20.7,N/A,,Scattered Clouds,220,2013-05-31 16:15:00
12:34 PM,73.4,67.1,81,29.96,10.0,SSW,13.8,20.7,N/A,,Scattered Clouds,200,2013-05-31 16:34:00
12:54 PM,72.9,66.6,81,29.95,10.0,South,15.0,18.4,N/A,,Scattered Clouds,190,2013-05-31 16:54:00
1:15 PM,72.3,66.2,81,29.96,10.0,SSW,12.7,-,N/A,,Mostly Cloudy,200,2013-05-31 17:15:00
1:34 PM,72.9,66.2,80,29.95,10.0,SSW,9.2,-,N/A,,Mostly Cloudy,210,2013-05-31 17:34:00
1:54 PM,72.9,66.0,79,29.95,10.0,SW,13.8,-,N/A,,Scattered Clouds,220,2013-05-31 17:54:00
2:15 PM,73.0,66.6,80,29.94,10.0,SSW,9.2,18.4,N/A,,Mostly Cloudy,200,2013-05-31 18:15:00
2:34 PM,73.4,66.4,79,29.92,10.0,SW,12.7,21.9,N/A,,Mostly Cloudy,220,2013-05-31 18:34:00
2:54 PM,72.1,66.2,82,29.93,10.0,SSW,12.7,16.1,N/A,,Overcast,210,2013-05-31 18:54:00
3:15 PM,73.4,66.6,79,29.92,10.0,SSW,12.7,-,N/A,,Scattered Clouds,200,2013-05-31 19:15:00
3:34 PM,73.4,67.6,82,29.90,10.0,South,12.7,18.4,N/A,,Scattered Clouds,190,2013-05-31 19:34:00
3:54 PM,73.6,66.9,80,29.90,10.0,SSW,15.0,21.9,N/A,,Scattered Clouds,200,2013-05-31 19:54:00
4:14 PM,74.3,67.3,79,29.90,10.0,SW,9.2,-,N/A,,Mostly Cloudy,220,2013-05-31 20:14:00
4:34 PM,73.4,66.9,80,29.89,10.0,SSW,15.0,-,N/A,,Overcast,210,2013-05-31 20:34:00
4:54 PM,73.4,67.1,81,29.89,10.0,SW,12.7,18.4,N/A,,Overcast,220,2013-05-31 20:54:00
5:14 PM,73.6,67.5,81,29.89,10.0,SW,6.9,-,N/A,,Mostly Cloudy,220,2013-05-31 21:14:00
5:34 PM,74.3,66.6,77,29.89,10.0,SSW,8.1,-,N/A,,Scattered Clouds,210,2013-05-31 21:34:00
5:55 PM,74.7,66.9,77,29.88,10.0,SW,6.9,-,N/A,,Clear,230,2013-05-31 21:55:00
6:14 PM,74.5,66.7,77,29.86,10.0,South,5.8,-,N/A,,Clear,170,2013-05-31 22:14:00
6:34 PM,74.3,67.1,78,29.88,10.0,SSW,6.9,-,N/A,,Scattered Clouds,210,2013-05-31 22:34:00
6:55 PM,73.6,66.6,79,29.87,10.0,SSW,8.1,-,N/A,,Scattered Clouds,210,2013-05-31 22:55:00
7:14 PM,74.1,67.1,79,29.86,10.0,South,9.2,-,N/A,,Clear,180,2013-05-31 23:14:00
7:34 PM,73.8,67.1,80,29.86,10.0,South,10.4,-,N/A,,Scattered Clouds,170,2013-05-31 23:34:00
7:55 PM,73.4,67.1,81,29.86,10.0,South,9.2,-,N/A,,Scattered Clouds,170,2013-05-31 23:55:00
8:14 PM,72.5,66.7,82,29.85,10.0,SSE,6.9,-,N/A,,Clear,160,2013-06-01 00:14:00
8:34 PM,72.5,66.9,83,29.84,10.0,SSE,11.5,-,N/A,,Clear,160,2013-06-01 00:34:00
8:55 PM,72.5,67.1,83,29.83,10.0,SSE,9.2,19.6,N/A,,Clear,160,2013-06-01 00:55:00
9:14 PM,71.8,66.9,85,29.83,10.0,SSE,6.9,-,N/A,,Clear,160,2013-06-01 01:14:00
9:34 PM,72.0,67.1,85,29.86,10.0,SE,8.1,-,N/A,,Scattered Clouds,140,2013-06-01 01:34:00
9:54 PM,71.1,68.0,90,29.85,10.0,SSE,6.9,-,N/A,Rain,Light Rain,160,2013-06-01 01:54:00
10:14 PM,70.9,68.0,91,29.84,10.0,SSE,6.9,-,N/A,,Mostly Cloudy,160,2013-06-01 02:14:00
10:35 PM,70.7,67.8,91,29.85,10.0,South,9.2,-,N/A,,Scattered Clouds,170,2013-06-01 02:35:00
10:54 PM,70.0,67.1,91,29.86,10.0,SSW,8.1,-,N/A,,Clear,200,2013-06-01 02:54:00
11:14 PM,70.0,66.2,88,29.86,10.0,SSW,9.2,-,N/A,,Scattered Clouds,200,2013-06-01 03:14:00
11:35 PM,69.4,65.7,88,29.87,10.0,South,8.1,-,N/A,,Scattered Clouds,180,2013-06-01 03:35:00
11:54 PM,68.9,64.4,86,29.87,10.0,South,13.8,-,N/A,,Mostly Cloudy,180,2013-06-01 03:54:00